[[{"header":{"parameterUnit":"m.s-1","parameterCategory":1,"la1":30.2992,"la2":30.254,"lo1":-89.0895,"lo2":-89.0443,"dy":0.0025,"dx":0.0025,"nx":19,"ny":19,"refTime":"2026-05-10T03:00:00:Z","depth":0,"parameterNumber":2,"parameterNumberName":"U-component_of_WINDS"},"data":[0,0,0,-1.4778,-1.4779,-1.481,-1.481,-1.4858,-1.4859,0,0,0,0,0,0,0,0,0,0,0,-1.4774,-1.4775,-1.4778,-1.4779,-1.481,-1.481,-1.4858,-1.4859,0,0,0,0,0,0,0,0,0,0,0,-1.4774,-1.4774,-1.4775,-1.4779,-1.481,-1.481,-1.4858,-1.4832,0,0,0,0,0,0,0,0,0,0,-1.48,-1.4801,-1.4774,-1.4775,-1.4779,-1.481,-1.481,-1.483,-1.4833,-1.4848,0,-1.4862,0,-1.4862,-1.4863,-1.4863,0,0,0,-1.4775,-1.4799,-1.4803,-1.4775,-1.478,-1.481,-1.4795,-1.4832,-1.4835,-1.4852,-1.4863,-1.4865,-1.4862,-1.4863,-1.4863,-1.4961,-1.4962,0,0,-1.4773,-1.4782,-1.48,-1.4805,-1.4801,-1.4794,-1.4796,-1.4834,-1.4846,-1.4863,-1.4866,-1.4863,-1.4863,-1.4864,-1.4961,-1.4961,0,0,0,-1.4771,-1.4781,-1.4784,-1.4803,-1.4808,-1.4795,-1.4797,-1.4845,-1.4845,-1.4866,-1.4864,-1.4864,-1.4864,-1.496,-1.4961,-1.5001,0,0,0,-1.477,-1.478,-1.4783,-1.4789,-1.4808,-1.4827,-1.4807,-1.4842,-1.4846,-1.4863,-1.4864,-1.4865,-1.4959,-1.496,-1.4999,-1.5019,0,0,0,-1.477,-1.478,-1.4786,-1.479,-1.4803,-1.4826,-1.4828,-1.4843,-1.4845,-1.4863,-1.4865,-1.4959,-1.496,-1.4996,-1.5015,-1.5047,0,0,0,-1.4773,-1.4822,-1.4787,-1.484,-1.4803,-1.4851,-1.4828,-1.4863,-1.4883,-1.4864,-1.4959,-1.4961,-1.4995,-1.5012,-1.5045,-1.5076,-1.509,0,0,-1.4839,-1.483,-1.486,-1.483,-1.4886,-1.4845,-1.4907,-1.4917,-1.4911,-1.4945,-1.4947,-1.4999,-1.5014,-1.5047,-1.5165,-1.5176,0,0,0,-1.4884,-1.4906,-1.4919,-1.4939,-1.4948,-1.4957,-1.4957,-1.4961,-1.4989,-1.493,-1.502,-1.5028,-1.5047,-1.5061,-1.5071,-1.5086,-1.4968,-1.4968,-1.4968,-1.499,-1.4979,-1.5029,-1.5022,-1.5042,-1.5042,-1.5056,-1.5061,-1.5045,-1.5066,-1.5076,-1.5149,-1.5166,-1.5173,-1.5189,-1.5092,-1.5092,-1.5092,-1.5092,-1.5085,-1.5115,-1.5092,-1.5132,-1.5121,-1.5154,-1.5156,-1.5143,-1.5173,-1.514,-1.5156,-1.5122,-1.5186,-1.5199,-1.5095,-1.5095,-1.5094,-1.5094,-1.5094,-1.5153,-1.5165,-1.517,-1.5198,-1.522,-1.5212,-1.5242,-1.523,-1.522,-1.5235,-1.5244,-1.5244,-1.5241,-1.524,-1.5241,-1.5241,-1.5241,-1.5241,-1.5242,-1.5222,-1.5225,-1.5252,-1.5266,-1.5277,-1.5291,-1.5291,-1.5303,-1.5312,-1.5301,-1.5301,-1.5282,-1.5194,-1.5172,-1.5245,-1.5245,-1.5244,-1.5244,-1.5244,-1.5322,-1.5298,-1.5338,-1.535,-1.5366,-1.539,-1.5375,-1.5399,-1.5406,-1.5421,-1.5399,-1.5336,-1.5325,-1.5318,-1.53,-1.5401,-1.5401,-1.5401,-1.5401,-1.5379,-1.5373,-1.5412,-1.5431,-1.5449,-1.544,-1.5487,-1.5488,-1.5486,-1.549,-1.5473,-1.5448,-1.5441,-1.5435,-1.5425,-1.5407,-1.5534,-1.5534,-1.5534,-1.544,-1.5435,-1.5477,-1.5474,-1.5486,-1.5496,-1.554,-1.5563,-1.5555,-1.554,-1.5493,-1.5487,-1.5446,-1.5433,-1.5416,-1.5401,-1.5369,0,0]},{"header":{"parameterUnit":"m.s-1","parameterCategory":1,"la1":30.2992,"la2":30.254,"lo1":-89.0895,"lo2":-89.0443,"dy":0.0025,"dx":0.0025,"nx":19,"ny":19,"refTime":"2026-05-10T03:00:00:Z","depth":0,"parameterNumber":3,"parameterNumberName":"V-component_of_WINDS"},"data":[0,0,0,0.8159,0.8159,0.8142,0.8142,0.8121,0.8121,0,0,0,0,0,0,0,0,0,0,0,0.8165,0.8165,0.8159,0.8159,0.8142,0.8142,0.8121,0.8121,0,0,0,0,0,0,0,0,0,0,0,0.8165,0.8165,0.8165,0.8159,0.8142,0.8142,0.8121,0.8133,0,0,0,0,0,0,0,0,0,0,0.815,0.8157,0.8165,0.8165,0.8159,0.8142,0.8142,0.8134,0.8132,0.8129,0,0.8127,0,0.8124,0.8119,0.8119,0,0,0,0.8158,0.8158,0.8152,0.8165,0.8159,0.8142,0.8149,0.8133,0.8131,0.8127,0.8127,0.8126,0.8123,0.8119,0.8119,0.8107,0.8107,0,0,0.8158,0.8163,0.8153,0.8151,0.8155,0.815,0.8149,0.8132,0.8131,0.8127,0.8126,0.8123,0.8119,0.8119,0.8107,0.8107,0,0,0,0.8162,0.8163,0.8158,0.8152,0.8149,0.8149,0.8148,0.8132,0.813,0.8125,0.8123,0.8119,0.8119,0.8107,0.8107,0.8111,0,0,0,0.8163,0.8166,0.8159,0.8161,0.815,0.8141,0.8148,0.8131,0.8129,0.8123,0.8119,0.8119,0.8107,0.8107,0.8111,0.8112,0,0,0,0.8166,0.8166,0.8164,0.8161,0.8154,0.8141,0.8138,0.8131,0.8128,0.8119,0.8118,0.8107,0.8107,0.8111,0.8112,0.8111,0,0,0,0.8171,0.8167,0.8164,0.8159,0.8155,0.8144,0.8138,0.813,0.8123,0.8119,0.8107,0.8107,0.8111,0.8112,0.8111,0.811,0.8111,0,0,0.8169,0.8167,0.8164,0.8161,0.8152,0.8146,0.8138,0.8127,0.8122,0.8112,0.8112,0.8111,0.8112,0.8111,0.8111,0.8111,0,0,0,0.8165,0.8163,0.816,0.8154,0.8147,0.814,0.813,0.8127,0.8118,0.8118,0.811,0.8111,0.811,0.8109,0.8109,0.8108,0.8107,0.8107,0.8107,0.8167,0.8162,0.8157,0.815,0.8144,0.8135,0.813,0.8123,0.8118,0.8117,0.8114,0.8115,0.8114,0.8115,0.8113,0.8113,0.8113,0.8113,0.8113,0.8164,0.816,0.8155,0.8149,0.8143,0.8137,0.8128,0.8125,0.8118,0.8116,0.8115,0.8113,0.8115,0.8114,0.8114,0.8114,0.8113,0.8113,0.8113,0.8165,0.8162,0.8158,0.8151,0.8145,0.8138,0.8132,0.8127,0.8122,0.8121,0.8117,0.8117,0.8116,0.8119,0.8119,0.8119,0.8119,0.8119,0.8119,0.8167,0.8163,0.8159,0.8152,0.8148,0.8143,0.8134,0.813,0.8124,0.8121,0.8121,0.8116,0.8117,0.8117,0.812,0.8119,0.8119,0.8119,0.8119,0.8165,0.8165,0.8159,0.8155,0.8147,0.8142,0.8136,0.8129,0.8125,0.8122,0.8118,0.812,0.8117,0.8117,0.8117,0.812,0.812,0.812,0.812,0.8165,0.8164,0.8158,0.8152,0.8147,0.8141,0.8135,0.8128,0.8122,0.8119,0.8118,0.8118,0.8118,0.8115,0.8115,0.8115,0.8117,0.8117,0.8117,0.8164,0.8162,0.8158,0.8152,0.8146,0.814,0.8134,0.8128,0.812,0.8117,0.8117,0.8117,0.8116,0.8116,0.8112,0.8112,0.8112,0,0]}]]